Find Starlink 34289

NORAD ID: 64225 Int'l Des: 2025-117 Owner: SPXS Country: US Constellation: starlink operational
LEOCIRCULAR

Live-Position

3D-Globus wird geladen...

Über Starlink 34289

Beschreibung wird geladen...

Nächste Überflüge

Passes for default location (London). Set your location on the main map for personalized predictions.

Höhenverlauf

Loading altitude history...

Zweizeiliger Elementsatz

1 64225U 25117Y 26106.62591500 .00008722 00000-0 30622-3 0 9993
2 64225 53.1584 223.4065 0001104 89.8410 270.2718 15.30205447 50367
Epoch: 16. Apr. 2026 • Age: 17 hours

Aktueller Status

Höhe 480.6 km
Geschwindigkeit 7.63 km/s
Subsatellitenpunkt -18.64°S, 95.57°E
Startdatum 31. Mai 2025
Alter 0.8 years
Typ internet

Technische Details

Klassifizierung Payload
Masse 575.00 kg
Trockenmasse 530.00 kg
Gesamtmasse 575.00 kg
Länge 0.30 m
Durchmesser 4.10 m
Spannweite 29.00 m
Form Box + pan
Hersteller SPXS
Bus-Typ Starlink V2MO
Phasenstatus In Orbit
Besitzer/Staat SPXS/US

Most Searched